Time,TemperatureF,DewpointF,PressureIn,WindDirection,WindDirectionDegrees,WindSpeedMPH,WindSpeedGustMPH,Humidity,HourlyPrecipIn,Conditions,Clouds,dailyrainin,SoftwareType,DateUTC
2013-10-17 00:04:00,41.0,34.9,30.17,NE,45,0.0,0.0,79,0.00,,,0.00,WUHU216HW,2013-10-17 07:04:00,
2013-10-17 00:29:00,40.9,35.1,30.16,NE,45,0.0,0.0,80,0.00,,,0.00,WUHU216HW,2013-10-17 07:29:00,
2013-10-17 00:34:00,40.9,35.1,30.16,NE,45,0.0,0.0,80,0.00,,,0.00,WUHU216HW,2013-10-17 07:34:00,
2013-10-17 00:59:00,40.3,34.9,30.17,NE,45,0.0,0.0,81,0.00,,,0.00,WUHU216HW,2013-10-17 07:59:00,
2013-10-17 01:04:00,40.3,34.9,30.17,NE,45,0.0,0.0,81,0.00,,,0.00,WUHU216HW,2013-10-17 08:04:00,
2013-10-17 01:29:00,39.8,34.1,30.18,NNE,23,0.0,0.0,80,0.00,,,0.00,WUHU216HW,2013-10-17 08:29:00,
2013-10-17 01:34:00,39.8,34.1,30.18,NNE,23,0.0,0.0,80,0.00,,,0.00,WUHU216HW,2013-10-17 08:34:00,
2013-10-17 01:59:00,39.2,33.9,30.18,NNE,23,0.0,0.0,81,0.00,,,0.00,WUHU216HW,2013-10-17 08:59:00,
2013-10-17 02:04:00,39.2,33.9,30.18,NNE,23,0.0,0.0,81,0.00,,,0.00,WUHU216HW,2013-10-17 09:04:00,
2013-10-17 02:09:00,39.2,33.9,30.18,NNE,23,0.0,0.0,81,0.00,,,0.00,WUHU216HW,2013-10-17 09:09:00,
2013-10-17 02:29:00,38.5,33.5,30.18,NE,45,0.0,0.0,82,0.00,,,0.00,WUHU216HW,2013-10-17 09:29:00,
2013-10-17 02:34:00,38.5,33.5,30.18,NE,45,0.0,0.0,82,0.00,,,0.00,WUHU216HW,2013-10-17 09:34:00,
2013-10-17 02:59:00,38.2,33.1,30.18,NE,45,0.0,0.0,82,0.00,,,0.00,WUHU216HW,2013-10-17 09:59:00,
2013-10-17 03:04:00,38.2,33.1,30.18,NE,45,0.0,0.0,82,0.00,,,0.00,WUHU216HW,2013-10-17 10:04:00,
2013-10-17 03:09:00,38.2,33.1,30.18,NE,45,0.0,0.0,82,0.00,,,0.00,WUHU216HW,2013-10-17 10:09:00,
2013-10-17 03:29:00,37.6,33.0,30.19,NE,45,0.0,0.0,83,0.00,,,0.00,WUHU216HW,2013-10-17 10:29:00,
2013-10-17 03:34:00,37.6,33.0,30.19,NE,45,0.0,0.0,83,0.00,,,0.00,WUHU216HW,2013-10-17 10:34:00,
2013-10-17 03:59:00,37.1,32.7,30.19,SSW,203,0.0,0.0,84,0.00,,,0.00,WUHU216HW,2013-10-17 10:59:00,
2013-10-17 04:04:00,37.1,32.7,30.19,SSW,203,0.0,0.0,84,0.00,,,0.00,WUHU216HW,2013-10-17 11:04:00,
2013-10-17 04:09:00,37.1,32.7,30.19,SSW,203,0.0,0.0,84,0.00,,,0.00,WUHU216HW,2013-10-17 11:09:00,
2013-10-17 04:29:00,36.7,32.3,30.20,SSW,203,0.0,0.0,84,0.00,,,0.00,WUHU216HW,2013-10-17 11:29:00,
2013-10-17 04:34:00,36.7,32.3,30.20,SSW,203,0.0,0.0,84,0.00,,,0.00,WUHU216HW,2013-10-17 11:34:00,
2013-10-17 04:59:00,36.2,31.8,30.20,SSW,203,0.0,0.0,84,0.00,,,0.00,WUHU216HW,2013-10-17 11:59:00,
2013-10-17 05:04:00,36.2,31.8,30.20,SSW,203,0.0,0.0,84,0.00,,,0.00,WUHU216HW,2013-10-17 12:04:00,
2013-10-17 05:29:00,36.2,31.8,30.21,West,270,0.0,0.0,84,0.00,,,0.00,WUHU216HW,2013-10-17 12:29:00,
2013-10-17 05:34:00,36.2,31.8,30.21,West,270,0.0,0.0,84,0.00,,,0.00,WUHU216HW,2013-10-17 12:34:00,
2013-10-17 05:59:00,36.0,31.9,30.22,WNW,293,0.0,0.0,85,0.00,,,0.00,WUHU216HW,2013-10-17 12:59:00,
2013-10-17 06:04:00,36.0,31.9,30.22,WNW,293,0.0,0.0,85,0.00,,,0.00,WUHU216HW,2013-10-17 13:04:00,
2013-10-17 06:29:00,36.0,32.1,30.22,NE,45,0.0,0.0,86,0.00,,,0.00,WUHU216HW,2013-10-17 13:29:00,
2013-10-17 06:34:00,36.0,32.1,30.22,NE,45,0.0,0.0,86,0.00,,,0.00,WUHU216HW,2013-10-17 13:34:00,
2013-10-17 06:59:00,35.6,31.5,30.23,ESE,113,0.0,0.0,85,0.00,,,0.00,WUHU216HW,2013-10-17 13:59:00,
2013-10-17 07:04:00,35.6,31.5,30.23,ESE,113,0.0,0.0,85,0.00,,,0.00,WUHU216HW,2013-10-17 14:04:00,
2013-10-17 07:29:00,36.2,32.6,30.24,SW,225,0.0,0.0,87,0.00,,,0.00,WUHU216HW,2013-10-17 14:29:00,
2013-10-17 07:34:00,36.2,32.6,30.24,SW,225,0.0,0.0,87,0.00,,,0.00,WUHU216HW,2013-10-17 14:34:00,
2013-10-17 07:59:00,36.9,33.0,30.25,SW,225,0.0,0.0,86,0.00,,,0.00,WUHU216HW,2013-10-17 14:59:00,
2013-10-17 08:04:00,36.9,33.0,30.25,SW,225,0.0,0.0,86,0.00,,,0.00,WUHU216HW,2013-10-17 15:04:00,
2013-10-17 08:29:00,37.1,33.2,30.26,ENE,68,0.0,0.0,86,0.00,,,0.00,WUHU216HW,2013-10-17 15:29:00,
2013-10-17 08:34:00,37.1,33.2,30.26,ENE,68,0.0,0.0,86,0.00,,,0.00,WUHU216HW,2013-10-17 15:34:00,
2013-10-17 08:59:00,38.5,34.7,30.26,ENE,68,0.0,0.0,86,0.00,,,0.00,WUHU216HW,2013-10-17 15:59:00,
2013-10-17 09:04:00,38.5,34.7,30.26,ENE,68,0.0,0.0,86,0.00,,,0.00,WUHU216HW,2013-10-17 16:04:00,
2013-10-17 09:29:00,42.3,38.1,30.27,SSW,203,0.4,0.4,85,0.00,,,0.00,WUHU216HW,2013-10-17 16:29:00,
2013-10-17 09:34:00,42.3,38.1,30.27,SSW,203,0.4,0.4,85,0.00,,,0.00,WUHU216HW,2013-10-17 16:34:00,
2013-10-17 09:59:00,46.6,40.5,30.26,NW,315,0.2,0.2,79,0.00,,,0.00,WUHU216HW,2013-10-17 16:59:00,
2013-10-17 10:04:00,46.6,40.5,30.26,NW,315,0.2,0.2,79,0.00,,,0.00,WUHU216HW,2013-10-17 17:04:00,
2013-10-17 10:09:00,46.6,40.5,30.26,NW,315,0.2,0.2,79,0.00,,,0.00,WUHU216HW,2013-10-17 17:09:00,
2013-10-17 10:29:00,50.6,42.0,30.26,South,180,0.9,0.9,72,0.00,,,0.00,WUHU216HW,2013-10-17 17:29:00,
2013-10-17 10:34:00,50.6,42.0,30.26,South,180,0.9,0.9,72,0.00,,,0.00,WUHU216HW,2013-10-17 17:34:00,
2013-10-17 10:59:00,54.2,43.0,30.26,North,0,0.2,0.2,66,0.00,,,0.00,WUHU216HW,2013-10-17 17:59:00,
2013-10-17 11:04:00,54.2,43.0,30.26,North,0,0.2,0.2,66,0.00,,,0.00,WUHU216HW,2013-10-17 18:04:00,
2013-10-17 11:29:00,57.2,43.9,30.26,SSW,203,0.2,0.2,61,0.00,,,0.00,WUHU216HW,2013-10-17 18:29:00,
2013-10-17 11:34:00,57.2,43.9,30.26,SSW,203,0.2,0.2,61,0.00,,,0.00,WUHU216HW,2013-10-17 18:34:00,
2013-10-17 11:59:00,59.8,42.6,30.26,NE,45,0.0,0.0,53,0.00,,,0.00,WUHU216HW,2013-10-17 18:59:00,
2013-10-17 12:04:00,59.8,42.6,30.26,NE,45,0.0,0.0,53,0.00,,,0.00,WUHU216HW,2013-10-17 19:04:00,
2013-10-17 12:29:00,60.7,42.5,30.26,NW,315,1.1,1.1,51,0.00,,,0.00,WUHU216HW,2013-10-17 19:29:00,
2013-10-17 12:31:00,60.7,42.5,30.26,NW,315,1.1,1.1,51,0.00,,,0.00,WUHU216HW,2013-10-17 19:31:00,
2013-10-17 12:36:00,60.7,42.5,30.26,NW,315,1.1,1.1,51,0.00,,,0.00,WUHU216HW,2013-10-17 19:36:00,
2013-10-17 12:59:00,62.3,40.5,30.24,WNW,293,1.8,1.8,45,0.00,,,0.00,WUHU216HW,2013-10-17 19:59:00,
2013-10-17 13:04:00,62.3,40.5,30.24,WNW,293,1.8,1.8,45,0.00,,,0.00,WUHU216HW,2013-10-17 20:04:00,
2013-10-17 13:29:00,63.0,41.8,30.23,ENE,68,0.2,0.2,46,0.00,,,0.00,WUHU216HW,2013-10-17 20:29:00,
2013-10-17 13:34:00,63.0,41.8,30.23,ENE,68,0.2,0.2,46,0.00,,,0.00,WUHU216HW,2013-10-17 20:34:00,
2013-10-17 13:59:00,63.5,42.2,30.23,WSW,248,1.1,1.1,46,0.00,,,0.00,WUHU216HW,2013-10-17 20:59:00,
2013-10-17 14:04:00,63.5,42.2,30.23,NNW,338,0.7,1.1,46,0.00,,,0.00,WUHU216HW,2013-10-17 21:04:00,
2013-10-17 14:09:00,63.5,42.2,30.23,NNW,338,0.7,0.7,46,0.00,,,0.00,WUHU216HW,2013-10-17 21:09:00,
2013-10-17 14:29:00,64.1,42.1,30.22,SSW,203,1.3,1.3,45,0.00,,,0.00,WUHU216HW,2013-10-17 21:29:00,
2013-10-17 14:34:00,64.1,42.1,30.22,SSW,203,1.3,1.3,45,0.00,,,0.00,WUHU216HW,2013-10-17 21:34:00,
2013-10-17 14:59:00,64.4,39.6,30.21,NNE,23,1.1,1.1,40,0.00,,,0.00,WUHU216HW,2013-10-17 21:59:00,
2013-10-17 15:04:00,64.4,39.6,30.21,NNE,23,1.1,1.1,40,0.00,,,0.00,WUHU216HW,2013-10-17 22:04:00,
2013-10-17 15:29:00,64.4,41.3,30.22,South,180,1.1,1.1,43,0.00,,,0.00,WUHU216HW,2013-10-17 22:29:00,
2013-10-17 15:34:00,64.4,41.3,30.22,South,180,1.1,1.1,43,0.00,,,0.00,WUHU216HW,2013-10-17 22:34:00,
2013-10-17 15:59:00,64.4,41.3,30.22,SE,135,0.9,0.9,43,0.00,,,0.00,WUHU216HW,2013-10-17 22:59:00,
2013-10-17 16:04:00,64.4,41.3,30.22,SE,135,0.9,0.9,43,0.00,,,0.00,WUHU216HW,2013-10-17 23:04:00,
2013-10-17 16:29:00,64.6,40.3,30.22,SSE,158,0.0,0.0,41,0.00,,,0.00,WUHU216HW,2013-10-17 23:29:00,
2013-10-17 16:34:00,64.6,40.3,30.22,SSE,158,0.0,0.0,41,0.00,,,0.00,WUHU216HW,2013-10-17 23:34:00,
2013-10-17 16:59:00,63.7,41.2,30.21,East,90,0.0,0.0,44,0.00,,,0.00,WUHU216HW,2013-10-17 23:59:00,
2013-10-17 17:03:00,63.7,41.2,30.21,East,90,0.0,0.0,44,0.00,,,0.00,WUHU216HW,2013-10-18 00:03:00,
2013-10-17 17:29:00,61.9,41.9,30.21,SE,135,0.0,0.0,48,0.00,,,0.00,WUHU216HW,2013-10-18 00:29:00,
2013-10-17 17:34:00,61.9,41.9,30.21,SE,135,0.0,0.0,48,0.00,,,0.00,WUHU216HW,2013-10-18 00:34:00,
2013-10-17 17:59:00,58.3,39.9,30.22,SSW,203,0.7,0.7,50,0.00,,,0.00,WUHU216HW,2013-10-18 00:59:00,
2013-10-17 18:03:00,58.3,39.9,30.22,SSW,203,0.7,0.7,50,0.00,,,0.00,WUHU216HW,2013-10-18 01:03:00,
2013-10-17 18:29:00,55.4,39.4,30.22,SW,225,0.0,0.0,55,0.00,,,0.00,WUHU216HW,2013-10-18 01:29:00,
2013-10-17 18:34:00,55.4,39.4,30.22,SW,225,0.0,0.0,55,0.00,,,0.00,WUHU216HW,2013-10-18 01:34:00,
2013-10-17 18:58:00,51.8,40.4,30.23,North,0,0.2,0.2,65,0.00,,,0.00,WUHU216HW,2013-10-18 01:58:00,
2013-10-17 19:03:00,51.8,40.4,30.23,North,0,0.2,0.2,65,0.00,,,0.00,WUHU216HW,2013-10-18 02:03:00,
2013-10-17 19:29:00,50.0,38.7,30.23,NNW,338,0.0,0.0,65,0.00,,,0.00,WUHU216HW,2013-10-18 02:29:00,
2013-10-17 19:34:00,50.0,38.7,30.23,NNW,338,0.0,0.0,65,0.00,,,0.00,WUHU216HW,2013-10-18 02:34:00,
2013-10-17 19:58:00,48.2,38.2,30.23,NNE,23,0.0,0.0,68,0.00,,,0.00,WUHU216HW,2013-10-18 02:58:00,
2013-10-17 20:03:00,48.2,38.2,30.23,NNE,23,0.0,0.0,68,0.00,,,0.00,WUHU216HW,2013-10-18 03:03:00,
2013-10-17 20:29:00,47.2,38.3,30.23,NNE,23,0.0,0.0,71,0.00,,,0.00,WUHU216HW,2013-10-18 03:29:00,
2013-10-17 20:34:00,47.2,38.3,30.23,NNE,23,0.0,0.0,71,0.00,,,0.00,WUHU216HW,2013-10-18 03:34:00,
2013-10-17 20:58:00,46.1,37.3,30.23,NE,45,0.0,0.0,71,0.00,,,0.00,WUHU216HW,2013-10-18 03:58:00,
2013-10-17 21:01:00,46.1,37.3,30.23,NE,45,0.0,0.0,71,0.00,,,0.00,WUHU216HW,2013-10-18 04:01:00,
2013-10-17 21:06:00,46.1,37.3,30.23,NE,45,0.0,0.0,71,0.00,,,0.00,WUHU216HW,2013-10-18 04:06:00,
2013-10-17 21:29:00,44.5,36.4,30.23,NE,45,0.0,0.0,73,0.00,,,0.00,WUHU216HW,2013-10-18 04:29:00,
2013-10-17 21:34:00,44.5,36.4,30.23,NE,45,0.0,0.0,73,0.00,,,0.00,WUHU216HW,2013-10-18 04:34:00,
2013-10-17 21:58:00,43.6,35.8,30.23,ENE,68,0.0,0.0,74,0.00,,,0.00,WUHU216HW,2013-10-18 04:58:00,
2013-10-17 22:03:00,43.6,35.8,30.23,ENE,68,0.0,0.0,74,0.00,,,0.00,WUHU216HW,2013-10-18 05:03:00,
2013-10-17 22:08:00,43.6,35.8,30.23,ENE,68,0.0,0.0,74,0.00,,,0.00,WUHU216HW,2013-10-18 05:08:00,
2013-10-17 22:29:00,42.8,35.8,30.24,NW,315,0.0,0.0,76,0.00,,,0.00,WUHU216HW,2013-10-18 05:29:00,
2013-10-17 22:34:00,42.8,35.8,30.24,NW,315,0.0,0.0,76,0.00,,,0.00,WUHU216HW,2013-10-18 05:34:00,
2013-10-17 22:58:00,42.3,35.6,30.23,SW,225,0.4,0.4,77,0.00,,,0.00,WUHU216HW,2013-10-18 05:58:00,
2013-10-17 23:03:00,42.3,35.6,30.23,SW,225,0.4,0.4,77,0.00,,,0.00,WUHU216HW,2013-10-18 06:03:00,
2013-10-17 23:29:00,41.4,35.3,30.24,SSW,203,0.0,0.0,79,0.00,,,0.00,WUHU216HW,2013-10-18 06:29:00,